When you browse on this site, cookies collect data to enhance your experience and personalize the content and advertising you see.
Visit our Privacy Policy to learn more. By continuing to use the site, you agree to this use of cookies and data.
  • In France
  • List of Countries
  • For 7 days
  • Water Temperature
  • Weather Map
  • Weather Widgets
  • user-avatar
    Login

    Hourly Weather Bindura

    Today, 3 June, Wednesday

    Time Temperature Precipitation Wind Pressure Humidity
    00:00 +10°C° 0 mm 0 mps 671 mmHg 83%
    01:00 +10°C° 0 mm 0 mps 671 mmHg 87%
    02:00 +10°C° 0 mm 0 mps 671 mmHg 92%
    03:00 +9°C° 0 mm 0 mps 671 mmHg 93%
    04:00 +9°C° 0 mm 0 mps 670 mmHg 94%
    05:00 +9°C° 0 mm 0 mps 670 mmHg 94%
    06:00 +10°C° 0 mm 0 mps 671 mmHg 86%
    07:00 +12°C° 0 mm 0 mps 672 mmHg 78%
    08:00 +14°C° 0 mm 0 mps 673 mmHg 68%
    09:00 +19°C° 0 mm 1 mps 673 mmHg 58%
    10:00 +20°C° 0 mm 2 mps 673 mmHg 48%
    11:00 +24°C° 0 mm 2 mps 673 mmHg 38%
    12:00 +25°C° 0 mm 2 mps 673 mmHg 35%
    13:00 +26°C° 0 mm 3 mps 672 mmHg 32%
    14:00 +27°C° 0 mm 3 mps 672 mmHg 28%
    15:00 +25°C° 0 mm 2 mps 671 mmHg 32%
    16:00 +24°C° 0 mm 2 mps 671 mmHg 36%
    17:00 +23°C° 0 mm 2 mps 670 mmHg 40%
    18:00 +19°C° 0 mm 2 mps 670 mmHg 51%
    19:00 +18°C° 0 mm 1 mps 670 mmHg 61%
    20:00 +14°C° 0 mm 1 mps 670 mmHg 71%
    21:00 +14°C° 0 mm 1 mps 670 mmHg 77%
    22:00 +13°C° 0 mm 1 mps 670 mmHg 82%
    23:00 +12°C° 0 mm 1 mps 670 mmHg 87%

    Tomorrow, 4 June, Thursday

    Time Temperature Precipitation Wind Pressure Humidity
    00:00 +12°C° 0 mm 1 mps 670 mmHg 89%
    01:00 +10°C° 0 mm 0 mps 670 mmHg 91%
    02:00 +10°C° 0 mm 0 mps 670 mmHg 94%
    03:00 +10°C° 0 mm 0 mps 670 mmHg 94%
    04:00 +9°C° 0 mm 0 mps 670 mmHg 94%
    05:00 +9°C° 0 mm 0 mps 670 mmHg 95%
    06:00 +11°C° 0 mm 0 mps 671 mmHg 88%
    07:00 +13°C° 0 mm 0 mps 672 mmHg 81%
    08:00 +15°C° 0 mm 0 mps 672 mmHg 74%
    09:00 +19°C° 0 mm 1 mps 673 mmHg 63%
    10:00 +20°C° 0 mm 2 mps 673 mmHg 52%
    11:00 +24°C° 0 mm 2 mps 673 mmHg 41%
    12:00 +25°C° 0 mm 2 mps 673 mmHg 36%
    13:00 +26°C° 0 mm 2 mps 672 mmHg 32%
    14:00 +27°C° 0 mm 2 mps 672 mmHg 27%
    15:00 +25°C° 0 mm 2 mps 672 mmHg 32%
    16:00 +24°C° 0 mm 2 mps 671 mmHg 36%
    17:00 +23°C° 0 mm 2 mps 671 mmHg 40%
    18:00 +19°C° 0 mm 2 mps 671 mmHg 52%
    19:00 +18°C° 0 mm 1 mps 671 mmHg 63%
    20:00 +14°C° 0 mm 1 mps 670 mmHg 75%
    21:00 +13°C° 0 mm 1 mps 670 mmHg 80%
    22:00 +13°C° 0 mm 1 mps 670 mmHg 85%
    23:00 +11°C° 0 mm 0 mps 670 mmHg 90%

    Day after tomorrow, 5 June, Friday

    Time Temperature Precipitation Wind Pressure Humidity
    00:00 +11°C° 0 mm 0 mps 670 mmHg 91%
    01:00 +10°C° 0 mm 0 mps 670 mmHg 92%
    02:00 +10°C° 0 mm 0 mps 670 mmHg 93%
    03:00 +10°C° 0 mm 0 mps 670 mmHg 94%
    04:00 +10°C° 0 mm 0 mps 671 mmHg 94%
    05:00 +9°C° 0 mm 0 mps 671 mmHg 95%
    06:00 +11°C° 0 mm 0 mps 672 mmHg 88%
    07:00 +13°C° 0 mm 0 mps 672 mmHg 81%
    08:00 +15°C° 0 mm 0 mps 673 mmHg 73%
    09:00 +19°C° 0 mm 1 mps 673 mmHg 62%
    10:00 +22°C° 0 mm 1 mps 674 mmHg 50%
    11:00 +25°C° 0 mm 2 mps 674 mmHg 38%
    12:00 +26°C° 0 mm 1 mps 673 mmHg 34%
    13:00 +28°C° 0 mm 1 mps 673 mmHg 31%
    14:00 +29°C° 0 mm 1 mps 673 mmHg 27%
    15:00 +27°C° 0 mm 1 mps 672 mmHg 30%
    16:00 +26°C° 0 mm 1 mps 672 mmHg 33%
    17:00 +24°C° 0 mm 1 mps 671 mmHg 36%
    18:00 +23°C° 0 mm 1 mps 671 mmHg 40%
    19:00 +21°C° 0 mm 1 mps 672 mmHg 43%
    20:00 +18°C° 0 mm 0 mps 672 mmHg 46%
    21:00 +20°C° 0 mm 1 mps 672 mmHg 50%
    22:00 +18°C° 0 mm 2 mps 672 mmHg 54%
    23:00 +18°C° 0 mm 2 mps 672 mmHg 58%

    6 June, Saturday

    Time Temperature Precipitation Wind Pressure Humidity
    00:00 +17°C° 0 mm 2 mps 672 mmHg 62%
    01:00 +16°C° 0 mm 1 mps 672 mmHg 66%
    02:00 +15°C° 0 mm 0 mps 672 mmHg 69%
    03:00 +14°C° 0 mm 0 mps 672 mmHg 74%
    04:00 +13°C° 0 mm 0 mps 671 mmHg 79%
    05:00 +11°C° 0 mm 0 mps 671 mmHg 84%
    06:00 +13°C° 0 mm 0 mps 672 mmHg 77%
    07:00 +15°C° 0 mm 0 mps 672 mmHg 70%
    08:00 +16°C° 0 mm 0 mps 673 mmHg 63%
    09:00 +19°C° 0 mm 0 mps 674 mmHg 54%
    10:00 +24°C° 0 mm 1 mps 674 mmHg 45%
    11:00 +26°C° 0 mm 1 mps 674 mmHg 37%
    12:00 +26°C° 0 mm 1 mps 674 mmHg 36%
    13:00 +25°C° 0 mm 1 mps 673 mmHg 36%
    14:00 +23°C° 0 mm 0 mps 672 mmHg 36%
    15:00 +23°C° 0 mm 1 mps 672 mmHg 40%
    16:00 +22°C° 0 mm 1 mps 671 mmHg 45%
    17:00 +21°C° 0 mm 1 mps 671 mmHg 49%
    18:00 +20°C° 0 mm 1 mps 671 mmHg 54%
    19:00 +18°C° 0 mm 2 mps 672 mmHg 58%
    20:00 +17°C° 0 mm 2 mps 672 mmHg 63%
    21:00 +16°C° 0 mm 2 mps 672 mmHg 66%
    22:00 +15°C° 0 mm 2 mps 672 mmHg 70%
    23:00 +14°C° 0 mm 2 mps 672 mmHg 73%

    7 June, Sunday

    Time Temperature Precipitation Wind Pressure Humidity
    00:00 +13°C° 0 mm 2 mps 672 mmHg 79%
    01:00 +12°C° 0 mm 1 mps 671 mmHg 85%
    02:00 +10°C° 0 mm 1 mps 671 mmHg 91%
    03:00 +10°C° 0 mm 1 mps 671 mmHg 92%
    04:00 +10°C° 0 mm 1 mps 671 mmHg 93%
    05:00 +9°C° 0 mm 1 mps 670 mmHg 95%
    06:00 +10°C° 0 mm 2 mps 671 mmHg 87%
    07:00 +13°C° 0 mm 2 mps 672 mmHg 80%
    08:00 +15°C° 0 mm 2 mps 673 mmHg 72%
    09:00 +17°C° 0 mm 2 mps 673 mmHg 60%
    10:00 +20°C° 0 mm 3 mps 674 mmHg 47%
    11:00 +24°C° 0 mm 3 mps 674 mmHg 34%
    12:00 +25°C° 0 mm 3 mps 674 mmHg 32%
    13:00 +26°C° 0 mm 3 mps 673 mmHg 29%
    14:00 +27°C° 0 mm 3 mps 673 mmHg 27%
    15:00 +25°C° 0 mm 3 mps 672 mmHg 30%
    16:00 +24°C° 0 mm 3 mps 672 mmHg 34%
    17:00 +23°C° 0 mm 2 mps 672 mmHg 38%
    18:00 +20°C° 0 mm 2 mps 672 mmHg 46%
    19:00 +18°C° 0 mm 2 mps 672 mmHg 54%
    20:00 +15°C° 0 mm 1 mps 672 mmHg 62%
    21:00 +14°C° 0 mm 1 mps 672 mmHg 70%
    22:00 +13°C° 0 mm 1 mps 672 mmHg 78%
    23:00 +12°C° 0 mm 1 mps 671 mmHg 86%

    8 June, Monday

    Time Temperature Precipitation Wind Pressure Humidity
    00:00 +11°C° 0 mm 1 mps 671 mmHg 89%
    01:00 +11°C° 0 mm 1 mps 671 mmHg 91%
    02:00 +10°C° 0 mm 1 mps 671 mmHg 93%
    03:00 +10°C° 0 mm 1 mps 671 mmHg 93%
    04:00 +10°C° 0 mm 1 mps 671 mmHg 93%
    05:00 +9°C° 0 mm 1 mps 670 mmHg 93%
    06:00 +11°C° 0 mm 1 mps 671 mmHg 84%
    07:00 +13°C° 0 mm 1 mps 672 mmHg 75%
    08:00 +15°C° 0 mm 1 mps 672 mmHg 66%
    09:00 +19°C° 0 mm 1 mps 673 mmHg 56%
    10:00 +21°C° 0 mm 2 mps 673 mmHg 46%
    11:00 +24°C° 0 mm 2 mps 673 mmHg 36%
    12:00 +25°C° 0 mm 2 mps 673 mmHg 33%
    13:00 +26°C° 0 mm 2 mps 672 mmHg 30%
    14:00 +27°C° 0 mm 2 mps 672 mmHg 28%
    15:00 +26°C° 0 mm 2 mps 672 mmHg 31%
    16:00 +25°C° 0 mm 2 mps 671 mmHg 34%
    17:00 +23°C° 0 mm 2 mps 671 mmHg 37%
    18:00 +20°C° 0 mm 2 mps 671 mmHg 44%
    19:00 +19°C° 0 mm 1 mps 671 mmHg 50%
    20:00 +16°C° 0 mm 1 mps 671 mmHg 57%
    21:00 +14°C° 0 mm 1 mps 671 mmHg 60%
    22:00 +13°C° 0 mm 1 mps 671 mmHg 62%
    23:00 +12°C° 0 mm 1 mps 670 mmHg 64%
    Show more